星链-30443 (STARLINK-30443 )

导读

STARLINK-30443是美国太空探索技术公司(SpaceX)于2023年9月20日发射的星链(Starlink)系列卫星,属于星链低轨互联网星座的组成部分。星链项目旨在为全球,尤其偏远、网络覆盖不足地区提供高速低延迟宽带互联网服务,该卫星入轨后,将与其他星链卫星协同,进一步扩展全球卫星互联网的覆盖范围与服务能力。

基本信息
目录编号:
57894
目录名称:
STARLINK-30443
国际标识:
2023-146D
轨道中心:
EARTH
卫星名称:
星链-30443
卫星全名:
星链-30443 (STARLINK-30443 )
卫星状态:
在轨 (已飞行1002 天)
发射日期:
2023-09-20 UTC
国别 :
美国 (US)
星等 :
--
轨道信息
数据来源 国际轨道数据 AOE轨道数据
星历时间 2026-06-16T11:19:28+0800
2天前
查看轨道信息
2026-06-15T18:00:00+0800
3天前
查看轨道信息
半长轴 6861.211km 6861.199km
偏心率 0.0001485 0.0001247
轨道倾角 43.008° 43.001°
近地点辐角 274.629° 268.590°
升交点赤经 118.141° 122.220°
平近点角 85.439° 77.193°
近地点 482.055km 482.206km
远地点 484.093km 483.918km
周期 94.267分钟 94.267分钟
每日圈数 15.275719 15.275759
详细信息
固有亮度:
5
最大亮度:
0.3
卫星平台:
Starlink v2.0 mini
覆盖范围:
全球
运营商:
太空探索技术公司
运营商所在国:
美国
制造商(研发单位):
太空探索技术公司
制造商所在国:
美国
使用方式:
暂无
卫星简介
星链(Starlink)计划是由太空探索技术公司(SpaceX)提出的一个巨型低轨卫星互联网星座项目,计划在2019年至2024年间在太空搭建由约1.2万颗卫星组成的“星链”网络,其中1584颗将部署在地球上空550千米处的近地轨道,并从2020年开始工作。该卫星仍在工作。
2D轨道图
3D轨道图
轨道高度分析图
轨道倾角分析图
轨道综合分析图
查看轨道综合分析图